Retour au catalogue

NOAA 16 DEB

ActifSSO
NORAD 41126·DEBRIS·🇺🇸 United States

Lancé Sep 21, 2000 depuis Vandenberg Space Force Base

Loading…

Prochains Passages (prochaines 24 heures)

TLE

FraisSource: Space-Track

Époque: Sep 14, 2026, 11:17 UTC

1 41126U 00055BH  26257.47035309  .00001902  00000-0  99591-3 0  9995
2 41126  98.7707 258.5497 0067234 100.6658 260.2095 14.14295098551954

Suivez NOAA 16 DEB en temps réel avec AllMySat

Download on the App Store